Weather History for KBMQ - October, 2011

Change the Weather History Date:

Saturday, October 8, 2011

  Actual Average (KAUS) Record (KAUS)
Temperature  
Mean Temperature 78 °F 72 °F  
Max Temperature 86 °F 85 °F 96 °F (1990)
Min Temperature 71 °F 58 °F 44 °F (2010)
Degree Days  
Heating Degree Days 0 1  
Month to date heating degree days 7  
Since 1 July heating degree days 9  
Cooling Degree Days 12 7  
Month to date cooling degree days 65  
Year to date cooling degree days 2593  
Growing Degree Days 28 (Base 50)    
Moisture  
Dew Point 67 °F    
Average Humidity 78    
Maximum Humidity 94    
Minimum Humidity 53    
Precipitation  
Precipitation 0.02 in 0.10 in 4.38 in (1994)
Month to date precipitation 0.80  
Year to date precipitation 26.44  
Snow  
Snow 0.00 in - - ()
Month to date snowfall  
Since 1 July snowfall  
Since 1 September snowfall  
Snow Depth -    
Sea Level Pressure  
Sea Level Pressure 29.97 in    
Wind  
Wind Speed 12 mph (SE)    
Max Wind Speed 18 mph    
Max Gust Speed 38 mph    
Visibility 9 miles    
Events Rain    
T = Trace of Precipitation, MM = Missing Value Source: NWS Daily Summary

Daily Weather History Graph

Daily Weather History Graph

Search for Another Location

Airport or City:

Trip Planner

Search our weather history database for the weather conditions in past years. The results will help you decide how hot, cold, wet, or windy it might be!

Date:

Astronomy

Oct. 08, 2011 Rise Set
Actual Time 7:30 AM CDT 7:09 PM CDT
Civil Twilight 7:06 AM CDT 7:34 PM CDT
Nautical Twilight 6:38 AM CDT 8:01 PM CDT
Astronomical Twilight 6:10 AM CDT 8:29 PM CDT
Moon 5:12 PM CDT (10/8) 4:30 AM CDT (10/8)
Length of Visible Light 12h 27m
Length of Day
11h 39m
Waxing Gibbous, 90% of the Moon is Illuminated
Oct 8
Waxing Gibbous
Oct 11
Full
Oct 19
Last Quarter
Oct 26
New
Nov 2
First Quarter

Hourly Weather History & Observations

Time (CDT) Temp. Heat Index Dew Point Humidity Pressure Visibility Wind Dir Wind Speed Gust Speed Precip Events Conditions
12:53 AM 75.9 °F - 66.0 °F 71% 29.98 in 10.0 mi SSE 12.7 mph 24.2 mph N/A   Mostly Cloudy
1:33 AM 75.2 °F - 66.2 °F 73% 30.02 in 10.0 mi SE 11.5 mph 23.0 mph N/A   Mostly Cloudy
1:53 AM 75.0 °F - 66.0 °F 73% 29.97 in 10.0 mi SSE 12.7 mph 21.9 mph N/A   Mostly Cloudy
2:39 AM 73.4 °F - 66.2 °F 78% 30.01 in 10.0 mi SE 13.8 mph 23.0 mph N/A   Scattered Clouds
2:53 AM 73.9 °F - 66.9 °F 79% 29.95 in 10.0 mi SE 11.5 mph 26.5 mph N/A   Scattered Clouds
3:13 AM 73.4 °F - 66.2 °F 78% 30.01 in 10.0 mi SSE 11.5 mph 20.7 mph N/A   Mostly Cloudy
3:53 AM 73.9 °F - 66.9 °F 79% 29.95 in 10.0 mi SSE 11.5 mph 21.9 mph N/A   Overcast
4:53 AM 73.9 °F - 66.9 °F 79% 29.94 in 10.0 mi SSE 11.5 mph 21.9 mph N/A   Overcast
5:53 AM 73.9 °F - 66.9 °F 79% 29.94 in 10.0 mi SE 11.5 mph 20.7 mph N/A   Overcast
6:53 AM 73.9 °F - 68.0 °F 82% 29.95 in 10.0 mi SE 9.2 mph 24.2 mph 0.00 in   Overcast
7:29 AM 73.4 °F - 68.0 °F 83% 30.02 in 10.0 mi SE 12.7 mph 19.6 mph N/A   Overcast
7:53 AM 73.9 °F - 66.9 °F 79% 29.97 in 9.0 mi SSE 10.4 mph 20.7 mph N/A   Overcast
8:53 AM 73.0 °F - 68.0 °F 84% 29.97 in 8.0 mi SE 16.1 mph 27.6 mph 0.00 in Rain Light Rain
9:01 AM 73.4 °F - 66.2 °F 78% 30.03 in 9.0 mi SE 13.8 mph 27.6 mph 0.00 in Rain Light Rain
9:27 AM 73.4 °F - 68.0 °F 83% 30.04 in 1.8 mi SE 10.4 mph 19.6 mph 0.00 in Rain Rain
9:40 AM 71.6 °F - 69.8 °F 94% 30.04 in 2.5 mi SE 12.7 mph 21.9 mph 0.01 in Rain Light Rain
9:53 AM 72.0 °F - 69.1 °F 91% 29.99 in 8.0 mi SE 11.5 mph 23.0 mph 0.01 in   Overcast
10:06 AM 71.6 °F - 69.8 °F 94% 30.04 in 1.8 mi SSE 8.1 mph 19.6 mph 0.00 in Rain Light Rain
10:13 AM 71.6 °F - 69.8 °F 94% 30.04 in 2.0 mi SE 8.1 mph - 0.00 in Rain Light Rain
10:16 AM 71.6 °F - 69.8 °F 94% 30.04 in 3.0 mi SSE 10.4 mph 16.1 mph 0.00 in Rain Light Rain
10:53 AM 73.9 °F - 69.1 °F 85% 29.99 in 9.0 mi SE 10.4 mph 18.4 mph 0.00 in   Overcast
11:39 AM 77.0 °F - 68.0 °F 74% 30.03 in 10.0 mi SSE 13.8 mph 21.9 mph N/A   Overcast
11:53 AM 78.1 °F - 66.9 °F 68% 29.98 in 10.0 mi SE 11.5 mph 20.7 mph N/A   Overcast
12:26 PM 78.8 °F - 66.2 °F 65% 30.03 in 10.0 mi SSE 18.4 mph 38.0 mph 0.00 in Rain Light Rain
12:37 PM 78.8 °F - 66.2 °F 65% 30.02 in 10.0 mi SE 13.8 mph 24.2 mph 0.00 in   Overcast
12:53 PM 78.1 °F - 66.9 °F 68% 29.96 in 10.0 mi SSE 13.8 mph 21.9 mph 0.00 in   Overcast
1:53 PM 82.0 °F 83.8 °F 64.9 °F 56% 29.92 in 10.0 mi SE 13.8 mph 25.3 mph N/A   Mostly Cloudy
2:53 PM 84.0 °F 85.8 °F 64.9 °F 53% 29.88 in 10.0 mi SE 9.2 mph 19.6 mph N/A   Overcast
3:53 PM 80.1 °F 81.9 °F 64.9 °F 60% 29.88 in 10.0 mi SE 11.5 mph 24.2 mph N/A   Mostly Cloudy
4:53 PM 81.0 °F 82.5 °F 64.0 °F 56% 29.87 in 10.0 mi South 12.7 mph 18.4 mph N/A   Overcast
5:53 PM 75.0 °F - 68.0 °F 79% 29.86 in 10.0 mi South 4.6 mph - 0.00 in   Scattered Clouds
6:53 PM 71.1 °F - 68.0 °F 90% 29.88 in 7.0 mi SE 6.9 mph - 0.01 in Rain Light Rain
7:53 PM 72.0 °F - 66.9 °F 84% 29.90 in 10.0 mi SE 6.9 mph - 0.00 in   Overcast
8:53 PM 73.0 °F - 68.0 °F 84% 29.91 in 10.0 mi ESE 9.2 mph - N/A   Mostly Cloudy
9:53 PM 73.9 °F - 68.0 °F 82% 29.94 in 10.0 mi SE 9.2 mph - N/A   Overcast
10:53 PM 73.0 °F - 68.0 °F 84% 29.94 in 9.0 mi SE 10.4 mph 20.7 mph 0.00 in Rain Light Rain
11:40 PM 73.4 °F - 66.2 °F 78% 29.98 in 10.0 mi SE 13.8 mph 20.7 mph 0.00 in   Overcast
11:53 PM 73.0 °F - 66.9 °F 81% 29.94 in 10.0 mi SE 12.7 mph 20.7 mph 0.00 in   Overcast